Location: Augirein
(42.9320°N, 0.9181°E)
Time: 20:10:19
(UTC+00:00)

USA 290 - Pass Details

Date: 20 June 2021
Orbit: 401 x 412 km, 73.6° (Epoch: 10 July)

Event Time Altitude Azimuth Distance (km) Brightness Sun altitude
Exits shadow 01:11:03 25° 93° (E) 872 3.9 -21.5°
Drops below altitude 10° 01:13:27 10° 46° (NE) 1,469 5.9 -21.4°
Sets 01:15:41 0° 33° (NNE) 2,332 7.4 -21.3°
